Bellaire, MI

3:22 AM EDT on October 01, 2016 (GMT -0400)
Antrim County

Weather History for KACB - January, 2013

Change the Weather History Date:

Thursday, January 24, 2013

  Actual Average (KTVC) Record (KTVC)
Temperature  
Mean Temperature 0 °F 21 °F  
Max Temperature 11 °F 28 °F 54 °F (1950)
Min Temperature -10 °F 14 °F -10 °F (1963)
Degree Days  
Heating Degree Days 64 44  
Month to date heating degree days 1041  
Since 1 July heating degree days 3849  
Moisture  
Dew Point -2 °F    
Average Humidity 76    
Maximum Humidity 86    
Minimum Humidity 54    
Precipitation  
Precipitation 0.00 in 0.08 in 1.82 in (1938)
Month to date precipitation 2.27  
Year to date precipitation 2.27  
Sea Level Pressure  
Sea Level Pressure 30.49 in    
Wind  
Wind Speed 3 mph (North)    
Max Wind Speed 7 mph    
Max Gust Speed -    
Visibility 10 miles    
Events      
T = Trace of Precipitation, MM = Missing Value Source: NWS Daily Summary

Daily Weather History Graph

Daily Weather History Graph

Search for Another Location

Airport or City:

Trip Planner

Search our weather history database for the weather conditions in past years. The results will help you decide how hot, cold, wet, or windy it might be!

Date:

Astronomy

Jan. 24, 2013 Rise Set
Actual Time 8:08 AM EST 5:37 PM EST
Civil Twilight 7:36 AM EST 6:09 PM EST
Nautical Twilight 7:00 AM EST 6:45 PM EST
Astronomical Twilight 6:26 AM EST 7:20 PM EST
Moon 3:37 PM EST (1/24) 6:07 AM EST (1/24)
Length of Visible Light 10h 33m
Length of Day
9h 29m
Waxing Gibbous, 94% of the Moon is Illuminated
Jan 24
Waxing Gibbous
Jan 26
Full
Feb 3
Last Quarter
Feb 10
New
Feb 17
First Quarter

Hourly Weather History & Observations

Time (EST) Temp. Windchill Dew Point Humidity Pressure Visibility Wind Dir Wind Speed Gust Speed Precip Events Conditions
12:14 AM 7.5 °F -2.6 °F 2.5 °F 80% 30.20 in 10.0 mi NNE 5.8 mph - N/A   Clear
12:35 AM 7.7 °F -0.9 °F 2.5 °F 79% 30.22 in 10.0 mi NNW 4.6 mph - N/A   Clear
12:54 AM 6.8 °F -2.0 °F 2.3 °F 82% 30.24 in 10.0 mi NW 4.6 mph - N/A   Scattered Clouds
1:15 AM 6.3 °F -0.7 °F 1.9 °F 82% 30.26 in 10.0 mi NNW 3.5 mph - N/A   Scattered Clouds
1:34 AM 6.3 °F -0.7 °F 2.1 °F 83% 30.27 in 10.0 mi NNW 3.5 mph - N/A   Mostly Cloudy
1:54 AM 4.8 °F - 0.1 °F 81% 30.28 in 10.0 mi Calm Calm - N/A   Scattered Clouds
2:14 AM 5.7 °F - 1.9 °F 84% 30.31 in 10.0 mi Calm Calm - N/A   Clear
2:34 AM 5.7 °F -3.2 °F 1.8 °F 84% 30.33 in 10.0 mi North 4.6 mph - N/A   Clear
2:55 AM 4.8 °F - 0.9 °F 84% 30.34 in 10.0 mi Calm Calm - N/A   Scattered Clouds
3:14 AM 3.6 °F -3.8 °F -0.8 °F 82% 30.36 in 4.0 mi NW 3.5 mph - N/A   Mostly Cloudy
3:35 AM 2.1 °F -5.4 °F -1.8 °F 83% 30.37 in 10.0 mi North 3.5 mph - N/A   Mostly Cloudy
3:55 AM 2.7 °F - -1.7 °F 82% 30.39 in 10.0 mi Calm Calm - N/A   Mostly Cloudy
4:14 AM 2.7 °F -6.8 °F -0.9 °F 85% 30.40 in 10.0 mi North 4.6 mph - N/A   Scattered Clouds
4:35 AM 2.8 °F -6.6 °F -0.9 °F 84% 30.42 in 10.0 mi North 4.6 mph - N/A   Scattered Clouds
4:55 AM 3.2 °F -9.1 °F -1.7 °F 80% 30.43 in 10.0 mi NNE 6.9 mph - N/A   Clear
5:14 AM 3.0 °F -8.0 °F -2.0 °F 80% 30.44 in 10.0 mi North 5.8 mph - N/A   Scattered Clouds
5:35 AM 2.8 °F -8.2 °F -2.2 °F 79% 30.46 in 10.0 mi North 5.8 mph - N/A   Scattered Clouds
5:55 AM 2.7 °F -6.8 °F -3.1 °F 77% 30.46 in 10.0 mi North 4.6 mph - N/A   Clear
6:14 AM 2.3 °F -5.2 °F -3.5 °F 77% 30.48 in 10.0 mi North 3.5 mph - N/A   Clear
6:35 AM 1.0 °F -6.7 °F -4.5 °F 77% 30.50 in 10.0 mi North 3.5 mph - N/A   Clear
7:15 AM -2.2 °F -10.4 °F -6.7 °F 81% 30.53 in 10.0 mi North 3.5 mph - N/A   Clear
7:34 AM -4.2 °F - -8.5 °F 82% 30.53 in 10.0 mi Calm Calm - N/A   Clear
7:55 AM -7.8 °F - -11.9 °F 82% 30.54 in 10.0 mi Calm Calm - N/A   Clear
8:15 AM -8.9 °F - -12.8 °F 83% 30.55 in 10.0 mi Calm Calm - N/A   Clear
8:34 AM -10.3 °F - -14.8 °F 81% 30.56 in 10.0 mi Calm Calm - N/A   Clear
8:55 AM -9.4 °F -18.6 °F -13.9 °F 81% 30.56 in 10.0 mi NNE 3.5 mph - N/A   Clear
9:15 AM -6.9 °F - -11.4 °F 81% 30.58 in 7.0 mi Calm Calm - N/A   Clear
9:34 AM -4.2 °F - -8.1 °F 83% 30.59 in 10.0 mi Calm Calm - N/A   Clear
9:55 AM -3.1 °F - -7.6 °F 81% 30.60 in 10.0 mi Calm Calm - N/A   Clear
10:14 AM 0.1 °F - -3.8 °F 83% 30.61 in 10.0 mi Calm Calm - N/A   Clear
10:35 AM 1.8 °F - -3.1 °F 80% 30.62 in 10.0 mi Calm Calm - N/A   Clear
10:55 AM 3.0 °F - -2.9 °F 76% 30.62 in 10.0 mi Calm Calm - N/A   Clear
11:14 AM 4.6 °F -4.5 °F -4.7 °F 65% 30.61 in 10.0 mi NE 4.6 mph - N/A   Clear
11:35 AM 5.7 °F -3.2 °F -4.9 °F 62% 30.61 in 10.0 mi NNE 4.6 mph - N/A   Clear
11:55 AM 5.7 °F -4.8 °F -4.2 °F 64% 30.60 in 10.0 mi NNE 5.8 mph - N/A   Clear
12:14 PM 6.8 °F -3.5 °F -3.6 °F 62% 30.59 in 10.0 mi NNE 5.8 mph - N/A   Clear
12:35 PM 7.7 °F -0.9 °F -2.9 °F 62% 30.59 in 10.0 mi NNE 4.6 mph - N/A   Clear
12:54 PM 8.6 °F - -2.4 °F 61% 30.59 in 10.0 mi Calm Calm - N/A   Clear
1:15 PM 9.1 °F 0.8 °F -2.0 °F 61% 30.58 in 10.0 mi NNE 4.6 mph - N/A   Clear
1:35 PM 9.5 °F - -1.7 °F 61% 30.58 in 10.0 mi Calm Calm - N/A   Clear
1:54 PM 10.2 °F 0.6 °F -1.8 °F 58% 30.57 in 10.0 mi NNE 5.8 mph - N/A   Clear
2:15 PM 10.8 °F 2.7 °F -1.7 °F 57% 30.56 in 10.0 mi North 4.6 mph - N/A   Clear
2:35 PM 11.3 °F 3.3 °F -2.2 °F 55% 30.56 in 10.0 mi North 4.6 mph - N/A   Clear
2:54 PM 10.4 °F -0.4 °F -2.6 °F 56% 30.56 in 10.0 mi NNE 6.9 mph - N/A   Clear
3:15 PM 11.1 °F 4.9 °F -2.6 °F 54% 30.56 in 10.0 mi NNE 3.5 mph - N/A   Clear
3:34 PM 11.7 °F 5.5 °F -2.2 °F 54% 30.56 in 10.0 mi NNE 3.5 mph - N/A   Clear
3:55 PM 11.5 °F - -2.2 °F 54% 30.57 in 10.0 mi Calm Calm - N/A   Clear
4:14 PM 11.1 °F - -2.2 °F 55% 30.58 in 10.0 mi Calm Calm - N/A   Clear
4:35 PM 9.7 °F - -1.5 °F 61% 30.57 in 10.0 mi Calm Calm - N/A   Clear
4:55 PM 9.9 °F - -1.1 °F 61% 30.56 in 10.0 mi Calm Calm - N/A   Clear
5:14 PM 7.2 °F - 0.3 °F 74% 30.56 in 10.0 mi Calm Calm - N/A   Clear
5:35 PM 5.7 °F - 0.3 °F 78% 30.55 in 10.0 mi Calm Calm - N/A   Clear
5:55 PM 3.7 °F - -0.6 °F 82% 30.54 in 10.0 mi Calm Calm - N/A   Clear
6:15 PM 3.2 °F - -0.2 °F 86% 30.53 in 10.0 mi Calm Calm - N/A   Clear
6:35 PM 1.4 °F - -2.6 °F 83% 30.54 in 10.0 mi Calm Calm - N/A   Clear
6:55 PM 2.8 °F - -0.6 °F 86% 30.53 in 10.0 mi Calm Calm - N/A   Clear
7:15 PM 2.7 °F - -0.9 °F 85% 30.53 in 10.0 mi Calm Calm - N/A   Clear
7:35 PM 3.0 °F - -0.8 °F 84% 30.53 in 10.0 mi Calm Calm - N/A   Clear
7:55 PM 2.8 °F - -0.9 °F 84% 30.51 in 10.0 mi Calm Calm - N/A   Clear
8:15 PM 3.2 °F - -0.8 °F 84% 30.51 in 10.0 mi Calm Calm - N/A   Clear
8:35 PM 3.2 °F - -0.6 °F 84% 30.50 in 10.0 mi Calm Calm - N/A   Clear
8:54 PM 3.2 °F - -0.8 °F 84% 30.48 in 10.0 mi Calm Calm - N/A   Clear
9:15 PM 4.6 °F - 0.9 °F 84% 30.47 in 10.0 mi Calm Calm - N/A   Clear
9:35 PM 3.7 °F - -0.0 °F 84% 30.47 in 10.0 mi Calm Calm - N/A   Clear
9:55 PM 4.3 °F - 0.3 °F 84% 30.47 in 10.0 mi Calm Calm - N/A   Clear
10:15 PM 4.5 °F - 0.7 °F 84% 30.46 in 10.0 mi Calm Calm - N/A   Clear
10:35 PM 5.5 °F - 1.9 °F 85% 30.47 in 10.0 mi Calm Calm - N/A   Clear
10:54 PM 5.2 °F - 1.4 °F 84% 30.46 in 10.0 mi Calm Calm - N/A   Clear
11:14 PM 5.9 °F - 2.1 °F 84% 30.45 in 10.0 mi Calm Calm - N/A   Clear
11:35 PM 5.5 °F - 1.8 °F 84% 30.44 in 10.0 mi Calm Calm - N/A   Clear
11:54 PM 5.9 °F - 2.1 °F 84% 30.44 in 10.0 mi Calm Calm - N/A   Scattered Clouds